SCP
-0 -0 0 -0 -0 -0 -0 -0 -0 -0 -0 -0 -0 -0 -0 -0 -0 -0 -0 -0 -0 -0 -0 -0 -0 -0 -0 -0 -0 -0 -0 -0 -0 -0 -0 -0 -0 -0 -0 -0 -0 -0 -0
0 -0 -0 -0 -0 -0 -0 -0 -0 -0 -0 -0 -0 -0 -0 -0 -0 -0 -0 -0 -0 -0 -0 -0 -0 -0 -0 -0 -0 -0 -0 -0 -0 -0 -0 -0 -0 -0 -0 -0 -0 -0 -0
0 0 0 -0 -0 -0 -0 -0 -0 -0 -0 -0 -0 -0 -0 -0 -0 -0 -0 -0 -0 -0 -0 -0 -0 -0 -0 -0 -0 -0 -0 -0 -0 -0 -0 -0 -0 -0 -0 -0 -0 -0 -0
0 0 0 0 0 -0 -0 -0 -0 -0 -0 -0 -0 -0 -0 -0 -0 -0 -0 -0 -0 -0 -0 -0 -0 -0 -0 -0 -0 -0 -0 -0 -0 -0 -0 0 -0 -0 -0 -0 -0 -0 -0
0 0 0 0 0 -0 -0 -0 -0 -0 -0 -0 -0 -0 -0 -0 -0 -0 -0 -0 -0 -0 -0 -0 -0 -0 -0 -0 -0 -0 -0 -0 -0 -0 -0 -0 -0 -0 -0 -0 -0 -0 -0
0 0 0 0 0 0 -0 -0 -0 -0 -0 -0 -0 -0 -0 -0 -0 -0 -0 -0 -0 -0 -0 -0 -0 -0 -0 -0 -0 -0 -0 -0 -0 -0 -0 0 -0 -0 -0 -0 -0 -0 -0
0 0 0 0 0 0 -0 -0 -0 -0 -0 -0 -0 -0 -0 -0 -0 -0 -0 -0 -0 -0 -0 -0 -0 -0 -0 -0 -0 -0 -0 -0 -0 0 0 -0 -0 -0 -0 -0 -0 -0 -0
0 0 0 0 0 0 -0 -0 -0 -0 -0 -0 -0 -0 -0 -0 -0 -0 -0 -0 -0 -0 -0 -0 -0 -0 -0 -0 -0 -0 -0 -0 0 0 0 -0 -0 -0 -0 -0 -0 -0 -0
0 0 0 0 0 0 0 0 -0 -0 -0 -0 -0 -0 -0 -0 -0 -0 -0 -0 -0 -0 -0 -0 -0 -0 -0 -0 -0 -0 -0 -0 0 0 -0 -0 -0 -0 -0 -0 -0 -0 -0
0 0 0 0 0 0 0 0 0 -0 -0 -0 -0 -0 -0 -0 -0 -0 -0 -0 -0 -0 -0 -0 -0 -0 -0 -0 -0 -0 -0 -0 0 0 -0 -0 -0 -0 -0 -0 -0 -0 -0
0 0 0 0 0 0 0 0 0 0 -0 -0 -0 -0 0 0 0 0 0 -0 -0 -0 0 -0 -0 -0 -0 -0 -0 -0 -0 0 0 -0 -0 0 -0 0 0 0 0 0 0
0 0 0 0 0 0 0 0 0 0 0 0 0 0 0 0 0 0 0 -0 0 0 0 0 0 -0 0 0 0 0 0 0 0 0 0 0 -0 -0 0 0 0 0 0
0 0 0 0 0 0 0 0 0 0 0 0 0 0 0 0 0 0 0 0 0 0 0 0 0 0 0 0 0 0 0 0 0 0 0 0 0 0 0 0 0 0 0
0 0 0 0 0 0 0 0 0 0 0 0 0 0 0 0 0 0 0 0 0 0 0 0 0 0 0 0 0 0 0 0 0 0 0 0 0 0 0 0 0 0 0
0 0 0 0 0 0 0 0 0 0 0 0 0 0 0 0 0 0 0 0 0 0 0 0 0 0 0 0 0 0 0 0 0 0 0 0 0 0 0 0 0 0 0
0 0 0 0 0 0 0 0 0 0 0 0 0 0 0 0 0 0 0 0 0 0 0 0 0 0 0 0 0 0 0 0 0 0 0 0 0 0 0 0 0 0 0
0 0 0 0 0 0 0 0 0 0 0 0 0 0 0 0 0 0 0 0 0 0 0 0 0 0 0 0 0 0 0 0 0 0 0 0 0 0 0 0 0 0 0
0 0 0 0 0 0 0 0 0 0 0 0 0 0 0 0 0 0 0 0 0 0 0 0 0 0 0 0 0 0 0 0 0 0 0 0 0 0 0 0 0 0 0
0 0 0 0 0 0 0 0 0 0 0 0 0 0 0 0 0 0 0 0 0 0 0 0 0 0 0 0 0 0 0 0 0 0 0 0 0 0 0 0 0 0 0
0 0 0 0 0 0 0 0 0 0 0 0 0 0 0 0 0 0 0 0 0 0 0 0 0 0 0 0 0 0 0 0 0 0 0 0 0 0 0 0 0 0 0
0 0 0 0 0 0 0 0 0 0 0 0 0 0 0 0 0 0 0 0 0 0 0 0 0 0 0 0 0 0 0 0 0 0 0 0 0 0 0 0 0 0 0
0 0 0 0 0 0 0 0 0 0 0 0 0 0 0 0 0 0 0 0 0 0 0 0 0 0 0 0 0 0 0 0 0 0 0 0 0 0 0 0 0 0 0
0 0 0 0 0 0 0 0 0 0 0 0 0 0 0 0 0 0 0 0 0 0 0 0 0 0 0 0 0 0 0 0 0 0 0 0 0 0 0 0 0 0 0
0 0 0 0 0 0 0 0 0 0 0 0 0 0 0 0 0 0 0 0 0 0 0 0 0 0 0 0 0 0 0 0 0 0 0 0 0 0 0 0 0 0 0
0 0 0 0 0 0 0 0 0 0 0 0 0 0 0 0 0 0 0 0 0 0 0 0 0 0 0 0 0 0 0 0 0 0 0 0 0 0 0 0 0 0 0
0 0 0 0 0 0 0 0 0 0 0 0 0 0 0 0 0 0 0 0 0 0 0 0 0 0 0 0 0 0 0 0 0 0 0 0 0 0 0 0 0 0 0
Wind_Speed_500mb
47 44 43 42 38 39 39 38 37 37 48 44 42 41 43 45 44 38 35 31 33 37 46 49 49 48 50 52 50 47 47 52 53 52 55 54 49 51 49 51 54 53 50
55 47 45 46 43 41 41 38 37 40 43 43 45 43 43 41 35 32 27 28 33 47 43 44 43 42 45 45 46 47 51 53 50 48 51 53 53 50 50 51 49 49 47
52 49 47 47 47 46 46 40 37 40 43 42 45 45 41 38 31 28 28 34 46 46 44 45 44 44 46 46 47 48 48 49 44 44 45 49 51 48 48 46 46 46 44
51 48 50 50 49 50 48 41 39 40 43 41 41 42 38 32 28 28 32 45 42 45 43 44 42 43 41 43 45 46 45 41 39 45 48 51 48 43 44 41 43 42 44
52 48 51 51 49 50 47 43 42 42 40 41 41 40 30 28 28 29 29 41 44 42 42 44 43 39 38 40 40 41 38 41 39 46 46 48 47 39 42 42 41 41 40
51 49 53 52 50 49 46 43 44 42 41 41 44 35 29 27 26 29 30 32 44 42 43 42 39 30 29 33 35 36 38 38 42 43 46 43 43 40 39 40 38 39 38
53 51 53 52 50 47 45 44 44 43 42 42 40 35 26 27 28 28 24 30 45 45 42 42 39 36 33 32 31 35 37 39 40 42 42 43 39 37 36 37 37 37 35
52 54 53 53 49 46 45 46 45 43 40 42 38 26 26 27 27 28 28 33 43 44 42 39 37 33 30 26 28 32 34 38 39 39 38 39 36 34 34 35 34 34 33
50 55 55 52 48 47 46 46 44 42 41 38 30 27 28 25 27 28 31 36 43 45 39 39 34 30 24 22 24 34 33 33 35 36 35 34 32 31 32 31 31 30 30
54 55 57 55 53 50 46 43 42 40 37 36 31 30 30 28 26 25 27 41 44 44 39 35 32 27 28 28 24 32 32 34 34 35 32 31 29 27 29 29 28 27 28
54 56 57 57 54 51 49 44 40 38 37 36 33 30 31 30 29 28 29 43 43 40 38 37 34 30 31 22 25 28 28 28 28 32 31 27 26 24 25 25 25 26 27
60 59 57 56 54 54 52 48 46 46 37 34 29 30 33 33 31 31 32 43 44 38 40 37 32 24 21 24 27 24 24 24 26 29 28 26 21 22 22 22 23 23 25
61 61 58 57 57 55 54 52 50 44 36 35 34 35 34 33 31 31 35 47 46 42 40 36 30 23 20 19 23 21 19 20 21 24 25 22 18 17 17 18 19 19 21
64 62 59 57 55 53 52 51 48 43 41 38 36 32 31 33 34 33 37 48 49 46 40 34 24 22 20 18 15 12 13 15 16 13 20 17 15 13 12 13 14 15 15
68 64 61 58 56 55 52 50 47 44 38 36 35 32 30 32 33 34 39 45 50 47 41 33 26 24 20 16 12 9 9 13 13 10 11 14 11 9 7 7 7 9 9
69 68 63 60 58 56 54 50 47 43 38 37 33 32 32 29 31 35 40 44 48 46 40 31 24 18 15 14 12 11 7 9 13 12 8 8 9 7 4 2 0 2 4
71 68 65 62 58 56 53 51 49 43 38 35 31 31 33 32 32 36 38 40 41 40 38 36 30 22 19 16 13 10 8 8 9 11 12 10 10 10 7 8 7 7 7
71 68 64 61 59 58 58 55 51 42 34 32 32 33 34 34 31 31 34 33 34 33 32 33 30 26 23 18 15 13 11 9 10 12 16 17 17 17 15 15 14 15 14
71 69 66 66 63 62 59 54 46 39 32 34 34 33 33 33 33 30 29 29 30 27 26 25 25 22 22 20 18 17 17 16 16 18 19 19 20 20 21 21 21 21 22
68 66 66 68 64 63 59 54 47 40 33 37 36 35 35 34 32 33 31 29 29 28 27 26 25 23 22 21 22 23 24 23 23 24 25 27 26 26 26 26 27 27 28
68 71 69 67 67 70 68 62 53 48 44 44 39 35 35 35 33 33 32 32 32 31 28 27 28 28 29 28 25 27 27 29 30 30 31 32 31 29 30 31 32 32 33
72 75 73 70 71 73 70 66 58 56 49 42 41 40 39 39 38 37 39 38 37 37 37 37 33 33 32 31 28 24 18 26 33 35 36 35 33 34 34 33 35 35 35
75 77 77 76 75 77 72 65 60 52 41 44 49 47 44 42 40 39 37 38 39 40 40 38 36 34 32 31 30 21 10 10 15 14 22 29 30 32 31 30 29 30 33
76 71 70 79 81 80 73 65 64 62 61 60 53 49 45 42 40 37 36 35 35 38 40 38 35 35 33 34 33 34 35 33 14 15 10 13 20 23 25 31 38 38 37
74 73 71 72 82 83 77 73 71 66 60 56 53 51 47 43 42 40 38 37 36 38 37 37 37 37 36 34 35 33 34 36 41 43 48 36 29 33 38 41 41 42 42
72 73 76 77 78 84 79 76 69 62 63 59 57 56 51 47 44 44 39 39 37 37 37 37 35 35 35 33 35 34 35 37 35 35 39 42 46 42 39 40 43 44 44
Wind_Direction_500mb
163 162 157 157 152 147 146 142 137 132 132 126 125 126 125 122 119 117 114 117 118 105 108 112 112 113 112 113 113 111 107 101 94 93 97 95 91 93 94 94 89 88 88
156 161 159 159 152 149 149 145 142 139 140 133 129 128 126 125 122 119 116 123 120 108 111 120 119 117 115 122 117 114 106 100 100 103 100 94 93 88 90 87 86 88 88
159 158 160 160 155 152 154 148 146 145 143 138 136 132 128 125 125 119 115 117 112 116 113 115 117 118 123 117 114 113 104 103 105 100 99 94 93 90 88 87 86 85 83
161 160 161 162 159 156 156 152 149 150 145 141 138 134 130 129 125 120 119 117 119 115 120 118 120 119 117 112 111 108 106 107 110 113 102 96 94 94 93 92 93 92 90
165 162 163 163 161 158 157 155 153 152 149 147 144 139 135 131 128 127 121 126 126 127 124 118 112 108 108 114 114 114 116 115 112 105 102 102 103 99 98 97 90 87 84
164 163 165 165 164 161 158 157 155 154 152 149 144 140 137 128 127 128 129 131 130 133 131 126 125 124 117 117 117 118 113 116 114 110 105 101 96 98 95 95 90 87 87
162 165 165 167 166 163 158 158 157 156 155 152 148 141 130 130 129 129 131 133 134 138 136 131 131 129 119 117 118 115 118 118 112 109 105 101 99 96 96 94 92 89 86
165 166 164 167 167 163 160 159 157 155 155 157 155 149 138 132 131 136 141 138 136 146 134 133 127 122 127 125 124 123 123 121 117 111 108 103 102 97 95 93 92 87 87
168 165 162 165 165 164 164 160 162 163 160 162 167 156 148 140 134 138 145 141 142 148 139 134 135 136 123 120 133 131 126 124 118 114 109 103 102 99 96 90 85 82 81
168 165 163 164 165 166 164 164 163 161 162 164 163 156 151 142 134 131 139 138 148 150 141 139 139 134 127 124 126 132 133 131 126 121 115 107 103 102 93 87 81 77 74
170 168 166 166 167 165 164 165 168 166 164 163 161 163 158 151 144 141 142 143 151 144 143 145 143 141 129 118 125 137 137 138 140 121 116 114 109 102 93 84 79 72 70
174 172 172 172 170 170 170 169 168 165 170 175 171 161 156 150 147 145 146 151 154 146 150 153 152 143 124 118 125 137 146 147 137 131 122 118 115 106 96 85 78 74 73
178 175 174 175 175 174 173 172 173 171 171 168 166 161 158 155 150 152 154 158 160 156 155 159 156 147 133 126 124 128 145 154 155 137 129 126 118 106 96 87 80 78 77
180 177 176 179 179 177 178 174 173 172 167 165 166 169 167 160 154 156 160 164 167 164 165 167 165 158 149 142 138 136 139 163 166 157 144 139 134 120 103 90 81 74 71
181 180 180 181 180 178 178 175 176 171 171 171 171 171 175 169 161 159 161 166 170 171 172 175 169 163 165 159 150 148 136 159 177 179 167 156 154 149 123 93 80 71 61
182 182 179 180 181 179 178 178 175 173 173 174 173 177 177 181 174 165 162 166 173 176 177 185 183 192 187 178 168 164 152 167 186 189 190 182 189 185 177 159 22 34 23
183 182 180 179 183 186 185 181 176 175 176 176 177 175 177 180 177 173 171 169 175 184 189 197 203 211 206 195 202 203 200 188 189 211 210 212 218 229 233 255 274 287 305
182 183 181 182 184 184 183 180 179 181 181 185 180 178 179 179 180 180 184 182 182 186 188 194 201 203 208 217 228 223 223 228 223 225 230 237 240 246 252 261 269 276 282
185 181 184 182 181 182 183 185 187 187 190 189 184 184 185 189 187 190 184 187 190 192 190 193 198 210 212 217 230 241 245 246 248 247 248 248 248 252 253 259 267 271 274
189 182 188 183 186 187 189 188 191 194 200 196 193 192 193 195 194 196 201 204 202 202 205 205 211 216 221 229 238 251 258 257 254 251 249 250 252 252 255 261 264 268 270
192 189 194 192 192 187 188 188 195 200 199 199 200 199 200 202 204 204 213 217 218 219 221 222 224 224 225 225 229 240 252 261 262 261 257 256 255 257 258 261 266 267 270
196 195 197 193 192 189 189 197 198 202 199 200 201 202 204 205 207 208 214 219 224 225 225 229 229 229 223 226 232 244 263 265 262 262 264 267 267 265 263 265 268 269 271
202 201 201 196 195 194 197 200 203 205 210 205 207 207 206 207 209 210 211 217 223 225 228 231 231 232 238 236 237 236 261 266 306 275 265 264 266 270 275 274 276 279 276
206 205 208 204 199 200 202 203 208 208 213 214 212 211 212 213 217 216 218 219 224 225 228 231 235 237 239 241 247 245 251 264 292 299 293 287 277 278 283 280 285 283 278
209 211 210 209 206 208 205 208 214 216 224 223 215 216 215 218 222 224 224 225 227 229 230 232 234 236 240 244 252 258 261 265 267 272 286 291 286 287 288 288 286 283 280
212 210 214 213 214 208 210 206 213 219 229 223 217 216 216 217 221 225 227 229 231 232 231 233 238 240 244 250 255 257 258 263 275 279 282 294 297 299 295 293 293 291 288
Wind_Speed_850mb
47 44 43 42 38 39 39 38 37 37 48 44 42 41 43 45 44 38 35 31 33 37 46 49 49 48 50 52 50 47 47 52 53 52 55 54 49 51 49 51 54 53 50
55 47 45 46 43 41 41 38 37 40 43 43 45 43 43 41 35 32 27 28 33 47 43 44 43 42 45 45 46 47 51 53 50 48 51 53 53 50 50 51 49 49 47
52 49 47 47 47 46 46 40 37 40 43 42 45 45 41 38 31 28 28 34 46 46 44 45 44 44 46 46 47 48 48 49 44 44 45 49 51 48 48 46 46 46 44
51 48 50 50 49 50 48 41 39 40 43 41 41 42 38 32 28 28 32 45 42 45 43 44 42 43 41 43 45 46 45 41 39 45 48 51 48 43 44 41 43 42 44
52 48 51 51 49 50 47 43 42 42 40 41 41 40 30 28 28 29 29 41 44 42 42 44 43 39 38 40 40 41 38 41 39 46 46 48 47 39 42 42 41 41 40
51 49 53 52 50 49 46 43 44 42 41 41 44 35 29 27 26 29 30 32 44 42 43 42 39 30 29 33 35 36 38 38 42 43 46 43 43 40 39 40 38 39 38
53 51 53 52 50 47 45 44 44 43 42 42 40 35 26 27 28 28 24 30 45 45 42 42 39 36 33 32 31 35 37 39 40 42 42 43 39 37 36 37 37 37 35
52 54 53 53 49 46 45 46 45 43 40 42 38 26 26 27 27 28 28 33 43 44 42 39 37 33 30 26 28 32 34 38 39 39 38 39 36 34 34 35 34 34 33
50 55 55 52 48 47 46 46 44 42 41 38 30 27 28 25 27 28 31 36 43 45 39 39 34 30 24 22 24 34 33 33 35 36 35 34 32 31 32 31 31 30 30
54 55 57 55 53 50 46 43 42 40 37 36 31 30 30 28 26 25 27 41 44 44 39 35 32 27 28 28 24 32 32 34 34 35 32 31 29 27 29 29 28 27 28
54 56 57 57 54 51 49 44 40 38 37 36 33 30 31 30 29 28 29 43 43 40 38 37 34 30 31 22 25 28 28 28 28 32 31 27 26 24 25 25 25 26 27
60 59 57 56 54 54 52 48 46 46 37 34 29 30 33 33 31 31 32 43 44 38 40 37 32 24 21 24 27 24 24 24 26 29 28 26 21 22 22 22 23 23 25
61 61 58 57 57 55 54 52 50 44 36 35 34 35 34 33 31 31 35 47 46 42 40 36 30 23 20 19 23 21 19 20 21 24 25 22 18 17 17 18 19 19 21
64 62 59 57 55 53 52 51 48 43 41 38 36 32 31 33 34 33 37 48 49 46 40 34 24 22 20 18 15 12 13 15 16 13 20 17 15 13 12 13 14 15 15
68 64 61 58 56 55 52 50 47 44 38 36 35 32 30 32 33 34 39 45 50 47 41 33 26 24 20 16 12 9 9 13 13 10 11 14 11 9 7 7 7 9 9
69 68 63 60 58 56 54 50 47 43 38 37 33 32 32 29 31 35 40 44 48 46 40 31 24 18 15 14 12 11 7 9 13 12 8 8 9 7 4 2 0 2 4
71 68 65 62 58 56 53 51 49 43 38 35 31 31 33 32 32 36 38 40 41 40 38 36 30 22 19 16 13 10 8 8 9 11 12 10 10 10 7 8 7 7 7
71 68 64 61 59 58 58 55 51 42 34 32 32 33 34 34 31 31 34 33 34 33 32 33 30 26 23 18 15 13 11 9 10 12 16 17 17 17 15 15 14 15 14
71 69 66 66 63 62 59 54 46 39 32 34 34 33 33 33 33 30 29 29 30 27 26 25 25 22 22 20 18 17 17 16 16 18 19 19 20 20 21 21 21 21 22
68 66 66 68 64 63 59 54 47 40 33 37 36 35 35 34 32 33 31 29 29 28 27 26 25 23 22 21 22 23 24 23 23 24 25 27 26 26 26 26 27 27 28
68 71 69 67 67 70 68 62 53 48 44 44 39 35 35 35 33 33 32 32 32 31 28 27 28 28 29 28 25 27 27 29 30 30 31 32 31 29 30 31 32 32 33
72 75 73 70 71 73 70 66 58 56 49 42 41 40 39 39 38 37 39 38 37 37 37 37 33 33 32 31 28 24 18 26 33 35 36 35 33 34 34 33 35 35 35
75 77 77 76 75 77 72 65 60 52 41 44 49 47 44 42 40 39 37 38 39 40 40 38 36 34 32 31 30 21 10 10 15 14 22 29 30 32 31 30 29 30 33
76 71 70 79 81 80 73 65 64 62 61 60 53 49 45 42 40 37 36 35 35 38 40 38 35 35 33 34 33 34 35 33 14 15 10 13 20 23 25 31 38 38 37
74 73 71 72 82 83 77 73 71 66 60 56 53 51 47 43 42 40 38 37 36 38 37 37 37 37 36 34 35 33 34 36 41 43 48 36 29 33 38 41 41 42 42
72 73 76 77 78 84 79 76 69 62 63 59 57 56 51 47 44 44 39 39 37 37 37 37 35 35 35 33 35 34 35 37 35 35 39 42 46 42 39 40 43 44 44
Wind_Direction_850mb
163 162 157 157 152 147 146 142 137 132 132 126 125 126 125 122 119 117 114 117 118 105 108 112 112 113 112 113 113 111 107 101 94 93 97 95 91 93 94 94 89 88 88
156 161 159 159 152 149 149 145 142 139 140 133 129 128 126 125 122 119 116 123 120 108 111 120 119 117 115 122 117 114 106 100 100 103 100 94 93 88 90 87 86 88 88
159 158 160 160 155 152 154 148 146 145 143 138 136 132 128 125 125 119 115 117 112 116 113 115 117 118 123 117 114 113 104 103 105 100 99 94 93 90 88 87 86 85 83
161 160 161 162 159 156 156 152 149 150 145 141 138 134 130 129 125 120 119 117 119 115 120 118 120 119 117 112 111 108 106 107 110 113 102 96 94 94 93 92 93 92 90
165 162 163 163 161 158 157 155 153 152 149 147 144 139 135 131 128 127 121 126 126 127 124 118 112 108 108 114 114 114 116 115 112 105 102 102 103 99 98 97 90 87 84
164 163 165 165 164 161 158 157 155 154 152 149 144 140 137 128 127 128 129 131 130 133 131 126 125 124 117 117 117 118 113 116 114 110 105 101 96 98 95 95 90 87 87
162 165 165 167 166 163 158 158 157 156 155 152 148 141 130 130 129 129 131 133 134 138 136 131 131 129 119 117 118 115 118 118 112 109 105 101 99 96 96 94 92 89 86
165 166 164 167 167 163 160 159 157 155 155 157 155 149 138 132 131 136 141 138 136 146 134 133 127 122 127 125 124 123 123 121 117 111 108 103 102 97 95 93 92 87 87
168 165 162 165 165 164 164 160 162 163 160 162 167 156 148 140 134 138 145 141 142 148 139 134 135 136 123 120 133 131 126 124 118 114 109 103 102 99 96 90 85 82 81
168 165 163 164 165 166 164 164 163 161 162 164 163 156 151 142 134 131 139 138 148 150 141 139 139 134 127 124 126 132 133 131 126 121 115 107 103 102 93 87 81 77 74
170 168 166 166 167 165 164 165 168 166 164 163 161 163 158 151 144 141 142 143 151 144 143 145 143 141 129 118 125 137 137 138 140 121 116 114 109 102 93 84 79 72 70
174 172 172 172 170 170 170 169 168 165 170 175 171 161 156 150 147 145 146 151 154 146 150 153 152 143 124 118 125 137 146 147 137 131 122 118 115 106 96 85 78 74 73
178 175 174 175 175 174 173 172 173 171 171 168 166 161 158 155 150 152 154 158 160 156 155 159 156 147 133 126 124 128 145 154 155 137 129 126 118 106 96 87 80 78 77
180 177 176 179 179 177 178 174 173 172 167 165 166 169 167 160 154 156 160 164 167 164 165 167 165 158 149 142 138 136 139 163 166 157 144 139 134 120 103 90 81 74 71
181 180 180 181 180 178 178 175 176 171 171 171 171 171 175 169 161 159 161 166 170 171 172 175 169 163 165 159 150 148 136 159 177 179 167 156 154 149 123 93 80 71 61
182 182 179 180 181 179 178 178 175 173 173 174 173 177 177 181 174 165 162 166 173 176 177 185 183 192 187 178 168 164 152 167 186 189 190 182 189 185 177 159 22 34 23
183 182 180 179 183 186 185 181 176 175 176 176 177 175 177 180 177 173 171 169 175 184 189 197 203 211 206 195 202 203 200 188 189 211 210 212 218 229 233 255 274 287 305
182 183 181 182 184 184 183 180 179 181 181 185 180 178 179 179 180 180 184 182 182 186 188 194 201 203 208 217 228 223 223 228 223 225 230 237 240 246 252 261 269 276 282
185 181 184 182 181 182 183 185 187 187 190 189 184 184 185 189 187 190 184 187 190 192 190 193 198 210 212 217 230 241 245 246 248 247 248 248 248 252 253 259 267 271 274
189 182 188 183 186 187 189 188 191 194 200 196 193 192 193 195 194 196 201 204 202 202 205 205 211 216 221 229 238 251 258 257 254 251 249 250 252 252 255 261 264 268 270
192 189 194 192 192 187 188 188 195 200 199 199 200 199 200 202 204 204 213 217 218 219 221 222 224 224 225 225 229 240 252 261 262 261 257 256 255 257 258 261 266 267 270
196 195 197 193 192 189 189 197 198 202 199 200 201 202 204 205 207 208 214 219 224 225 225 229 229 229 223 226 232 244 263 265 262 262 264 267 267 265 263 265 268 269 271
202 201 201 196 195 194 197 200 203 205 210 205 207 207 206 207 209 210 211 217 223 225 228 231 231 232 238 236 237 236 261 266 306 275 265 264 266 270 275 274 276 279 276
206 205 208 204 199 200 202 203 208 208 213 214 212 211 212 213 217 216 218 219 224 225 228 231 235 237 239 241 247 245 251 264 292 299 293 287 277 278 283 280 285 283 278
209 211 210 209 206 208 205 208 214 216 224 223 215 216 215 218 222 224 224 225 227 229 230 232 234 236 240 244 252 258 261 265 267 272 286 291 286 287 288 288 286 283 280
212 210 214 213 214 208 210 206 213 219 229 223 217 216 216 217 221 225 227 229 231 232 231 233 238 240 244 250 255 257 258 263 275 279 282 294 297 299 295 293 293 291 288